This demonstration page uses our WeatherBlox Daily Observations layout. Learn more.

36.17497, -115.13722

Hourly Observations for July 13, 2015

Temp ( °F °C ) Dew Point ( °F °C ) Humidity (%) Winds ( mph kmh ) Pressure ( in mb ) Visibility ( mi km ) Precip ( " mm )
12:53 am 00:53 Clear 85 29.4 35 1.7 17 17 SSW 9 15 29.87 1011 10 16.0934 0 0
1:53 am 01:53 Clear 82 27.8 36 2.2 19 19 ENE 3 6 29.87 1012 10 16.0934 0 0
2:53 am 02:53 Clear 80 26.7 36 2.2 20 20 Calm 29.87 1012 10 16.0934 0 0
3:53 am 03:53 Clear 78 25.6 39 3.9 25 25 NW 5 7 29.88 1012 10 16.0934 0 0
4:53 am 04:53 Clear 76 24.4 39 3.9 26 26 Calm 29.89 1012 10 16.0934 0 0
5:53 am 05:53 Sunny 76 24.4 40 4.4 27 27 WNW 6 9 29.91 1013 10 16.0934 0 0
6:53 am 06:53 Sunny 78 25.6 43 6.1 29 29 N 6 9 29.92 1013 10 16.0934 0 0
7:53 am 07:53 Sunny 83 28.3 38 3.3 20 20 ESE 5 7 29.93 1014 10 16.0934 0 0
8:53 am 08:53 Sunny 86 30 39 3.9 19 19 Calm 29.92 1013 10 16.0934 0 0
9:53 am 09:53 Sunny 89 31.7 40 4.4 18 18 SSE 5 7 29.91 1013 10 16.0934 0 0
10:53 am 10:53 Sunny 92 33.3 38 3.3 15 15 SE 6 9 29.9 1013 10 16.0934 0 0
11:53 am 11:53 Sunny 97 36.1 38 3.3 13 13 S 18 30 29.87 1012 10 16.0934 0 0
12:53 pm 12:53 Sunny 98 36.7 39 3.9 13 13 SSE 14 22 29.85 1011 10 16.0934 0 0
1:53 pm 13:53 Sunny 100 37.8 39 3.9 12 12 SSW 15 24 29.82 1010 10 16.0934 0 0
2:53 pm 14:53 Sunny 102 38.9 39 3.9 11 11 SW 15 24 29.79 1009 10 16.0934 0 0
3:53 pm 15:53 Sunny 102 38.9 39 3.9 11 11 W 7 11 29.77 1008 10 16.0934 0 0
4:53 pm 16:53 Sunny 102 38.9 38 3.3 11 11 W 14 22 29.74 1007 10 16.0934 0 0
5:53 pm 17:53 Sunny 102 38.9 34 1.1 9 9 W 15 24 29.73 1007 10 16.0934 0 0
6:53 pm 18:53 Sunny 100 37.8 28 -2.2 8 8 W 14 22 29.73 1007 10 16.0934 0 0
7:53 pm 19:53 Sunny 98 36.7 26 -3.3 8 8 WSW 10 17 29.73 1007 10 16.0934 0 0
8:53 pm 20:53 Clear 95 35 23 -5 7 7 WSW 10 17 29.74 1007 10 16.0934 0 0
9:53 pm 21:53 Clear 94 34.4 22 -5.6 7 7 W 9 15 29.75 1007 10 16.0934 0 0
10:53 pm 22:53 Clear 91 32.8 25 -3.9 9 9 Calm 29.75 1008 10 16.0934 0 0
11:53 pm 23:53 Clear 88 31.1 25 -3.9 10 10 SE 3 6 29.76 1008 10 16.0934 0 0

Powered by AerisWeather